Regional Weather Roundup
Issued by NWS

Home | Current Version | Previous Version | Graphics & Text | Print | Product List | Glossary On
Versions: 1 2 3 4 5 6 7 8 9 10 11 12 13 14 15 16 17 18 19 20 21 22 23 24 25 26 27 28 29 30 31 32 33 34 35 36 37 38 39 40 41 42 43 44 45 46 47 48 49 50
000
ASUS43 KDTX 212310
RWRMI
MICHIGAN HOURLY REGIONAL WEATHER ROUNDUP
NATIONAL WEATHER SERVICE DETROIT/PONTIAC MI
700 PM EDT SAT APR 21 2018

NOTE: "FAIR" INDICATES FEW OR NO CLOUDS BELOW 12,000 FEET WITH NO
SIGNIFICANT WEATHER AND/OR OBSTRUCTION TO VISIBILITY.

MIZ047>049-052>055-059>063-066>070-074>076-081>083-220000-
SOUTHEAST LOWER MICHIGAN

CITY           SKY/WX    TMP DP  RH WIND       PRES   REMARKS
ADRIAN         FAIR      54  25  32 CALM      30.40F
ALMA           FAIR      57  28  32 S6        30.37F
ANN ARBOR      FAIR      54  29  38 S8        30.39F
BAD AXE        FAIR      55  14  19 SE6       30.40S
CARO           FAIR      57  21  24 CALM      30.37S
DETROIT CITY   FAIR      52  15  23 SE7       30.41F
DETROIT        CLOUDY    53  24  32 SE7       30.41S
FLINT          FAIR      57  25  29 VRB5      30.38F
GROSSE ILE     FAIR      44  25  46 S5        30.41F
HILLSDALE      FAIR      54  23  30 NE5       30.37F
HOWELL         FAIR      55  23  28 SW3       30.38S

CITY           SKY/WX    TMP DP  RH WIND       PRES   REMARKS
JACKSON        FAIR      55  20  25 CALM      30.38F
LAMBERTVILLE   FAIR      51  17  25 E5        30.41S
LANSING        FAIR      57  24  28 W6        30.38F
LAPEER         FAIR      56  23  28 NW5       30.38S
MASON          FAIR      57  18  21 CALM      30.38F
MONROE         PTSUNNY   47  22  37 E8        30.41S
MT. CLEMENS    PTSUNNY   51  26  38 S6        30.39F
PONTIAC        CLOUDY    55  25  31 SE6       30.37F
PORT HOPE        N/A     43  33  68 SE8       30.39S
PORT HURON     FAIR      54  23  30 S5        30.41S
TRI CITIES     FAIR      58  25  28 SW9       30.38S
MIDLAND        FAIR      58  30  34 SW8       30.35F
TROY           FAIR      55  12  18 E6        30.41F
SAGINAW HB     FAIR      59  25  27 S5        30.37S
$$
MIZ043>046-050>051-056>058-064>065-071>073-077>080-220000-
SOUTHWEST LOWER MICHIGAN

CITY           SKY/WX    TMP DP  RH WIND       PRES   REMARKS
BATTLE CREEK   FAIR      58  25  28 CALM      30.37F
BENTON HARBOR  FAIR      50  17  27 VRB6      30.37F
BIG RAPIDS     FAIR      58   8  14 N5        30.34F
COLDWATER      FAIR      56  26  31 S3        30.37F
FREMONT        FAIR      55  -1  10 W8        30.37S
HOLLAND        FAIR      52  20  28 W5        30.38F
GRAND RAPIDS   PTSUNNY   57  21  24 VRB5      30.37F
IONIA          FAIR      57  19  22 SW3       30.36F
KALAMAZOO      FAIR      58  25  28 W6        30.37F
LUDINGTON      FAIR      50  17  26 NW6       30.37F
MARSHALL       FAIR      55  24  29 S3        30.36F
MOUNT PLEASANT FAIR      59  19  21 CALM      30.36F
MUSKEGON       FAIR      52  12  20 NW6       30.38F
SOUTH HAVEN    PTSUNNY   49  20  31 N5        30.37F
$$
MIZ016>042-220000-
NORTHERN LOWER MICHIGAN

CITY           SKY/WX    TMP DP  RH WIND       PRES   REMARKS
ALPENA         FAIR      49  23  36 E7        30.39S
BEAVER ISLAND  FAIR      50  15  24 SW8       30.38S
BELLAIRE       FAIR      55  13  19 N5        30.38S
CADILLAC       FAIR      56  16  20 S6        30.34S
CHARLEVOIX     FAIR      52  22  30 W6        30.41F
FRANKFORT      FAIR      50  16  26 W3        30.39F
GAYLORD        FAIR      55  10  16 CALM      30.36S
GRAYLING       FAIR      56  13  17 CALM      30.35S
HARBOR SPRINGS FAIR      47  19  32 SW3       30.39S
HOUGHTON LAKE  FAIR      56  15  20 SW5       30.36F
MANISTEE       FAIR      52  15  23 W7        30.38F
OSCODA         FAIR      48  19  31 SE5       30.39S
PELLSTON       FAIR      54  13  19 W7        30.38S
ROGERS CITY    FAIR      49  20  31 E3        30.39S
TRAVERSE CITY  FAIR      49  23  36 NE7       30.37S
$$
MIZ007>008-015-220000-
EASTERN UPPER MICHIGAN

CITY           SKY/WX    TMP DP  RH WIND       PRES   REMARKS
KINROSS        FAIR      53  15  22 SW6       30.37S
MACKINAC ISLAN FAIR      48  17  29 W6        30.38S
NEWBERRY       FAIR      48  22  35 S5        30.35S
S. S. MARIE    FAIR      54  19  25 SW8       30.35F
MUNISING         N/A     39  26  59 CALM      30.36R
$$
MIZ004>006-011>014-085-220000-
CENTRAL UPPER MICHIGAN

CITY           SKY/WX    TMP DP  RH WIND       PRES   REMARKS
MANISTIQUE     FAIR      42  30  62 S15       30.36F
ESCANABA       FAIR      51  20  29 S13       30.34F
MENOMINEE      FAIR      55  22  27 S13       30.35F
SAWYER-GWINN   SUNNY     48  16  27 N9        30.35R
$$
MIZ001>003-009>011-084-220000-
WESTERN UPPER MICHIGAN

CITY           SKY/WX    TMP DP  RH WIND       PRES   REMARKS
IRON MOUNTAIN  FAIR      62  13  14 N6        30.29F
HOUGHTON       FAIR      52  15  23 E6        30.35S
COPPER HARBOR    N/A     42  29  59 CALM      30.37S
IRONWOOD       FAIR      54  15  21 NE9       30.34S
$$

ABBREVIATIONS USED IN REMARKS
   TC - TEMPERATURE IN CELSIUS
  WCI - WIND CHILL INDEX
   HX - HEAT INDEX
  VSB - VISIBILITY




USA.gov is the U.S. government's official web portal to all federal, state and local government web resources and services.